NOVASAR 1 (43619 NORAD) Tracking and Keplerian Element Data

This shows tracking and keplerian element data for the satellite.

Feedback or suggestion? Click here.




ElementValue
Catalog43619
NameNOVASAR 1
Epoch Orbit415
Epoch Day287.51501824
Epoch Year2018
RAAN177.278
Inclination97.8181
Eccentricity0.0014987
Argument of Perigee149.2379
Mean Anonmoly210.9743
Mean Motion14.94722179
Decay Rate5.9E-07
L11 43619U 18071B 18287.51501824 .00000059 00000-0 10845-4 0 9998
L22 43619 97.8181 177.2780 0014987 149.2379 210.9743 14.94722179 4157

Live tracking and technical data element details for NOVASAR 1 (NORAD 43619). NOVASAR 1 can be tracked NOW for your location showing map with azimuth and elevation plus other details from your city location.

Track the satellite on the map from your city or location and see movement details for azimuth, elevation, latitude, longitude, range, height, and movement on the map or in text.







IsCatalogInMostPopularTable: catalog: 43619, numindb: 17
Update: records affected: 1



GetName: 43619 NOVASAR 1

Hit Count: updated at: Tue, 20 Nov 2018 12:22:34 GMT